DLH5NP EDDF-LIML

Flight info

Callsign DLH5NP
Flight time 0h 57m
Altitude 31000
Route ANEKI2L/18 ANEKI Y163 NATOR DCT TRA DCT RIPUS DCT GERSA DCT SOSON DCT ODINA
Aircraft A320/M-SDE3FGHIRWY/LB1

Departure

Time 2026-05-06 08:47
Airport Frankfurt Main Airport (EDDF)

Arrival

Time 2026-05-06 09:44
Airport Milano Linate Airport (LIML)
Time Latitude Longitude Altitude Speed Heading
2026-05-06 08:04 50.04042 8.55545 358 ft 0 kts 160°
2026-05-06 08:42 50.04041 8.55546 351 ft 0 kts 160°
2026-05-06 08:42 50.04024 8.55556 358 ft 5 kts 159°
2026-05-06 08:42 50.03987 8.55577 354 ft 7 kts 160°
2026-05-06 08:43 50.03949 8.55532 352 ft 8 kts 246°
2026-05-06 08:43 50.03927 8.55441 350 ft 10 kts 249°
2026-05-06 08:43 50.03900 8.55329 353 ft 12 kts 249°
2026-05-06 08:43 50.03866 8.55186 357 ft 16 kts 249°
2026-05-06 08:44 50.03823 8.55005 356 ft 19 kts 249°
2026-05-06 08:44 50.03773 8.54800 352 ft 21 kts 250°
2026-05-06 08:44 50.03720 8.54576 352 ft 23 kts 250°
2026-05-06 08:44 50.03661 8.54331 348 ft 25 kts 249°
2026-05-06 08:45 50.03602 8.54081 349 ft 25 kts 249°
2026-05-06 08:45 50.03540 8.53825 338 ft 26 kts 249°
2026-05-06 08:45 50.03477 8.53561 336 ft 26 kts 250°
2026-05-06 08:45 50.03413 8.53294 337 ft 26 kts 249°
2026-05-06 08:46 50.03348 8.53024 333 ft 27 kts 249°
2026-05-06 08:46 50.03285 8.52759 332 ft 21 kts 249°
2026-05-06 08:46 50.03250 8.52621 335 ft 12 kts 243°
2026-05-06 08:46 50.03169 8.52596 335 ft 14 kts 179°
2026-05-06 08:47 50.02993 8.52597 335 ft 52 kts 179°
2026-05-06 08:47 50.02399 8.52603 335 ft 116 kts 179°
2026-05-06 08:47 50.01412 8.52619 358 ft 163 kts 181°
2026-05-06 08:47 50.00313 8.52645 1073 ft 157 kts 181°
2026-05-06 08:48 49.99219 8.52701 1741 ft 159 kts 182°
2026-05-06 08:48 49.98103 8.52781 2292 ft 162 kts 182°
2026-05-06 08:48 49.96978 8.52863 2908 ft 162 kts 181°
2026-05-06 08:48 49.95836 8.52941 3461 ft 167 kts 181°
2026-05-06 08:49 49.94584 8.53016 3653 ft 193 kts 181°
2026-05-06 08:49 49.93164 8.53106 3919 ft 216 kts 181°
2026-05-06 08:49 49.91630 8.53208 4561 ft 223 kts 181°
2026-05-06 08:49 49.90058 8.53318 5264 ft 229 kts 181°
2026-05-06 08:50 49.88452 8.53430 6063 ft 232 kts 180°
2026-05-06 08:50 49.86829 8.53545 6835 ft 235 kts 181°
2026-05-06 08:50 49.85187 8.53663 7607 ft 237 kts 180°
2026-05-06 08:50 49.83533 8.53777 8408 ft 239 kts 180°
2026-05-06 08:51 49.81861 8.53891 9227 ft 241 kts 180°
2026-05-06 08:51 49.80175 8.54006 10007 ft 244 kts 180°
2026-05-06 08:51 49.78474 8.54119 10732 ft 246 kts 181°
2026-05-06 08:51 49.76735 8.53969 11222 ft 260 kts 187°
2026-05-06 08:52 49.74853 8.53718 11449 ft 283 kts 187°
2026-05-06 08:52 49.72808 8.53438 11648 ft 307 kts 187°
2026-05-06 08:52 49.70609 8.53137 11920 ft 326 kts 187°
2026-05-06 08:52 49.68324 8.52867 12547 ft 332 kts 185°
2026-05-06 08:53 49.66000 8.52700 13263 ft 336 kts 184°
2026-05-06 08:53 49.63654 8.52593 13951 ft 339 kts 183°
2026-05-06 08:53 49.61283 8.52513 14591 ft 343 kts 183°
2026-05-06 08:53 49.58887 8.52435 15216 ft 346 kts 182°
2026-05-06 08:54 49.56474 8.52346 15833 ft 350 kts 183°
2026-05-06 08:54 49.54026 8.52246 16445 ft 353 kts 183°
2026-05-06 08:54 49.51563 8.52134 17049 ft 357 kts 183°
2026-05-06 08:54 49.49065 8.52013 17669 ft 360 kts 183°
2026-05-06 08:55 49.46552 8.51888 18225 ft 364 kts 183°
2026-05-06 08:55 49.44005 8.51765 18756 ft 367 kts 183°
2026-05-06 08:55 49.41439 8.51642 19310 ft 370 kts 183°
2026-05-06 08:55 49.38835 8.51517 19876 ft 372 kts 183°
2026-05-06 08:56 49.36238 8.51388 20432 ft 374 kts 184°
2026-05-06 08:56 49.33658 8.51263 20976 ft 377 kts 184°
2026-05-06 08:56 49.30985 8.51137 21536 ft 379 kts 184°
2026-05-06 08:56 49.28343 8.51015 22065 ft 382 kts 184°
2026-05-06 08:57 49.25674 8.50987 22592 ft 385 kts 181°
2026-05-06 08:57 49.22993 8.51088 23104 ft 388 kts 180°
2026-05-06 08:57 49.20295 8.51260 23560 ft 390 kts 180°
2026-05-06 08:57 49.17586 8.51455 24072 ft 389 kts 180°
2026-05-06 08:58 49.14880 8.51644 24537 ft 389 kts 180°
2026-05-06 08:58 49.12179 8.51816 24969 ft 390 kts 180°
2026-05-06 08:58 49.09463 8.51971 25384 ft 391 kts 180°
2026-05-06 08:58 49.06750 8.52114 25795 ft 391 kts 180°
2026-05-06 08:59 49.04020 8.52250 26188 ft 393 kts 180°
2026-05-06 08:59 49.01284 8.52383 26585 ft 394 kts 180°
2026-05-06 08:59 48.98548 8.52518 26975 ft 395 kts 180°
2026-05-06 08:59 48.95790 8.52656 27361 ft 396 kts 180°
2026-05-06 09:00 48.93045 8.52794 27726 ft 397 kts 180°
2026-05-06 09:00 48.90265 8.52935 28087 ft 398 kts 180°
2026-05-06 09:00 48.87499 8.53077 28442 ft 399 kts 180°
2026-05-06 09:00 48.84723 8.53223 28785 ft 401 kts 180°
2026-05-06 09:01 48.81930 8.53369 29105 ft 402 kts 180°
2026-05-06 09:01 48.79120 8.53510 29413 ft 403 kts 180°
2026-05-06 09:01 48.76317 8.53649 29714 ft 405 kts 180°
2026-05-06 09:01 48.73482 8.53793 29913 ft 408 kts 179°
2026-05-06 09:02 48.70640 8.53942 30112 ft 410 kts 179°
2026-05-06 09:02 48.67776 8.54091 30320 ft 412 kts 180°
2026-05-06 09:02 48.64919 8.54234 30521 ft 414 kts 180°
2026-05-06 09:02 48.62031 8.54377 30720 ft 415 kts 180°
2026-05-06 09:03 48.59137 8.54519 30796 ft 414 kts 180°
2026-05-06 09:03 48.53423 8.54806 30805 ft 410 kts 180°
2026-05-06 09:04 48.47683 8.55091 30805 ft 410 kts 180°
2026-05-06 09:04 48.42019 8.55377 30808 ft 410 kts 180°
2026-05-06 09:05 48.37244 8.55621 30808 ft 410 kts 180°
2026-05-06 09:05 48.31555 8.55909 30804 ft 409 kts 180°
2026-05-06 09:06 48.25868 8.56193 30804 ft 409 kts 180°
2026-05-06 09:06 48.20173 8.56469 30807 ft 409 kts 180°
2026-05-06 09:07 48.14507 8.56757 30816 ft 406 kts 180°
2026-05-06 09:07 48.08884 8.57047 30819 ft 403 kts 180°
2026-05-06 09:08 48.03290 8.57311 30837 ft 402 kts 181°
2026-05-06 09:08 47.97705 8.57575 30830 ft 400 kts 180°
2026-05-06 09:09 47.92144 8.57854 30830 ft 400 kts 180°
2026-05-06 09:09 47.86551 8.58138 30831 ft 399 kts 181°
2026-05-06 09:10 47.81000 8.58411 30830 ft 399 kts 181°
2026-05-06 09:10 47.75453 8.58678 30834 ft 399 kts 181°
2026-05-06 09:11 47.69906 8.58945 30837 ft 399 kts 181°
2026-05-06 09:11 47.64358 8.59215 30838 ft 398 kts 181°
2026-05-06 09:12 47.58834 8.59484 30843 ft 397 kts 181°
2026-05-06 09:12 47.53319 8.59750 30840 ft 397 kts 181°
2026-05-06 09:13 47.47805 8.60019 30835 ft 396 kts 182°
2026-05-06 09:13 47.42291 8.60284 30844 ft 396 kts 182°
2026-05-06 09:14 47.36799 8.60546 30837 ft 395 kts 182°
2026-05-06 09:14 47.31307 8.60813 30841 ft 395 kts 182°
2026-05-06 09:15 47.25820 8.61083 30841 ft 394 kts 182°
2026-05-06 09:15 47.20329 8.61351 30840 ft 394 kts 182°
2026-05-06 09:16 47.14857 8.61606 30833 ft 393 kts 182°
2026-05-06 09:16 47.09344 8.61861 30824 ft 393 kts 182°
2026-05-06 09:17 47.03876 8.62129 30816 ft 393 kts 182°
2026-05-06 09:17 46.98415 8.62392 30817 ft 392 kts 182°
2026-05-06 09:18 46.92998 8.62646 30322 ft 384 kts 182°
2026-05-06 09:18 46.90344 8.62774 29818 ft 379 kts 182°
2026-05-06 09:18 46.87720 8.62901 29202 ft 375 kts 182°
2026-05-06 09:18 46.85121 8.63026 28550 ft 372 kts 182°
2026-05-06 09:19 46.82559 8.63144 28016 ft 367 kts 182°
2026-05-06 09:19 46.80015 8.63260 27487 ft 363 kts 182°
2026-05-06 09:19 46.77486 8.63376 26683 ft 364 kts 181°
2026-05-06 09:19 46.74963 8.63492 26125 ft 362 kts 181°
2026-05-06 09:20 46.72449 8.63608 25605 ft 360 kts 181°
2026-05-06 09:20 46.69960 8.63725 25062 ft 358 kts 180°
2026-05-06 09:20 46.67467 8.63844 24864 ft 359 kts 180°
2026-05-06 09:20 46.64965 8.63962 24851 ft 360 kts 180°
2026-05-06 09:21 46.62463 8.64076 24866 ft 361 kts 180°
2026-05-06 09:21 46.59946 8.64194 24862 ft 359 kts 180°
2026-05-06 09:21 46.57441 8.64312 24864 ft 360 kts 180°
2026-05-06 09:21 46.54939 8.64429 24755 ft 358 kts 180°
2026-05-06 09:22 46.52464 8.64548 24262 ft 356 kts 180°
2026-05-06 09:22 46.49988 8.64667 23741 ft 355 kts 180°
2026-05-06 09:22 46.47525 8.64784 23188 ft 355 kts 179°
2026-05-06 09:22 46.45065 8.64901 22664 ft 352 kts 179°
2026-05-06 09:23 46.42623 8.65014 22155 ft 350 kts 180°
2026-05-06 09:23 46.40203 8.65125 21715 ft 348 kts 180°
2026-05-06 09:23 46.37794 8.65238 21212 ft 345 kts 180°
2026-05-06 09:23 46.35401 8.65349 20727 ft 342 kts 180°
2026-05-06 09:24 46.33035 8.65458 20154 ft 340 kts 180°
2026-05-06 09:24 46.30676 8.65566 19655 ft 339 kts 180°
2026-05-06 09:24 46.28321 8.65672 19241 ft 337 kts 180°
2026-05-06 09:24 46.25998 8.65774 18694 ft 332 kts 180°
2026-05-06 09:25 46.23688 8.65874 18162 ft 329 kts 180°
2026-05-06 09:25 46.21401 8.65975 17587 ft 330 kts 180°
2026-05-06 09:25 46.19107 8.66079 17086 ft 328 kts 180°
2026-05-06 09:25 46.16839 8.66187 16593 ft 326 kts 179°
2026-05-06 09:26 46.14578 8.66295 16132 ft 323 kts 180°
2026-05-06 09:26 46.12330 8.66466 15619 ft 323 kts 175°
2026-05-06 09:26 46.10114 8.67142 15179 ft 322 kts 165°
2026-05-06 09:26 46.08052 8.68371 14889 ft 322 kts 154°
2026-05-06 09:27 46.06080 8.69935 14839 ft 322 kts 154°
2026-05-06 09:27 46.04121 8.71479 14403 ft 320 kts 154°
2026-05-06 09:27 46.02170 8.73004 13901 ft 320 kts 153°
2026-05-06 09:27 46.00215 8.74525 13418 ft 319 kts 155°
2026-05-06 09:28 45.98268 8.76036 12910 ft 318 kts 154°
2026-05-06 09:28 45.96331 8.77543 12448 ft 316 kts 154°
2026-05-06 09:28 45.94415 8.79031 12011 ft 313 kts 154°
2026-05-06 09:28 45.92496 8.80524 11598 ft 311 kts 154°
2026-05-06 09:29 45.90600 8.82000 11345 ft 311 kts 154°
2026-05-06 09:29 45.88707 8.83477 11088 ft 310 kts 154°
2026-05-06 09:29 45.86810 8.84955 10906 ft 309 kts 154°
2026-05-06 09:29 45.84963 8.86395 10853 ft 294 kts 154°
2026-05-06 09:30 45.83217 8.87756 10862 ft 280 kts 154°
2026-05-06 09:30 45.81524 8.89074 10859 ft 277 kts 154°
2026-05-06 09:30 45.79825 8.90391 10863 ft 277 kts 154°
2026-05-06 09:30 45.78128 8.91704 10864 ft 277 kts 154°
2026-05-06 09:31 45.76436 8.93017 10867 ft 278 kts 154°
2026-05-06 09:31 45.74730 8.94341 10861 ft 278 kts 154°
2026-05-06 09:31 45.73049 8.95647 10860 ft 268 kts 154°
2026-05-06 09:31 45.71459 8.96882 10864 ft 252 kts 154°
2026-05-06 09:32 45.69960 8.98041 10864 ft 239 kts 155°
2026-05-06 09:32 45.68512 8.99155 10865 ft 236 kts 155°
2026-05-06 09:32 45.67060 9.00268 10866 ft 235 kts 155°
2026-05-06 09:32 45.65623 9.01371 10755 ft 234 kts 155°
2026-05-06 09:33 45.64195 9.02470 10423 ft 233 kts 155°
2026-05-06 09:33 45.62785 9.03553 10155 ft 229 kts 155°
2026-05-06 09:33 45.61361 9.04646 9854 ft 228 kts 155°
2026-05-06 09:33 45.59960 9.05719 9579 ft 229 kts 155°
2026-05-06 09:34 45.58560 9.06794 9353 ft 229 kts 155°
2026-05-06 09:34 45.57154 9.07872 9173 ft 228 kts 156°
2026-05-06 09:34 45.55759 9.08941 8944 ft 227 kts 155°
2026-05-06 09:34 45.54368 9.10007 8667 ft 226 kts 155°
2026-05-06 09:35 45.52985 9.11065 8373 ft 225 kts 155°
2026-05-06 09:35 45.51602 9.12086 8063 ft 222 kts 160°
2026-05-06 09:35 45.50145 9.12731 7724 ft 218 kts 172°
2026-05-06 09:35 45.48649 9.12949 7381 ft 216 kts 178°
2026-05-06 09:36 45.47145 9.13111 7027 ft 216 kts 177°
2026-05-06 09:36 45.45650 9.13277 6711 ft 215 kts 177°
2026-05-06 09:36 45.44659 9.13389 6489 ft 215 kts 176°
2026-05-06 09:36 45.42671 9.13618 6054 ft 213 kts 176°
2026-05-06 09:37 45.41671 9.13731 5833 ft 212 kts 176°
2026-05-06 09:37 45.40204 9.13895 5505 ft 211 kts 177°
2026-05-06 09:37 45.38748 9.14058 5182 ft 210 kts 177°
2026-05-06 09:37 45.36828 9.14272 4754 ft 208 kts 177°
2026-05-06 09:38 45.35852 9.14381 4532 ft 208 kts 177°
2026-05-06 09:38 45.34415 9.14545 4187 ft 207 kts 176°
2026-05-06 09:38 45.32975 9.14709 3857 ft 206 kts 176°
2026-05-06 09:38 45.31547 9.14869 3513 ft 206 kts 176°
2026-05-06 09:39 45.30137 9.15025 3345 ft 198 kts 176°
2026-05-06 09:39 45.28801 9.15278 3214 ft 191 kts 160°
2026-05-06 09:39 45.27804 9.16425 3126 ft 188 kts 122°
2026-05-06 09:39 45.27549 9.18237 3064 ft 191 kts 91°
2026-05-06 09:40 45.27738 9.20085 2991 ft 184 kts 85°
2026-05-06 09:40 45.27998 9.21850 3007 ft 180 kts 83°
2026-05-06 09:40 45.28539 9.25315 3000 ft 180 kts 75°
2026-05-06 09:41 45.29035 9.26977 3001 ft 184 kts 71°
2026-05-06 09:41 45.29778 9.28480 3009 ft 192 kts 42°
2026-05-06 09:41 45.31045 9.29148 2788 ft 199 kts
2026-05-06 09:41 45.32418 9.29016 2534 ft 196 kts 356°
2026-05-06 09:42 45.33770 9.28864 2271 ft 195 kts 358°
2026-05-06 09:42 45.35101 9.28718 2011 ft 187 kts 359°
2026-05-06 09:42 45.36354 9.28581 1796 ft 171 kts 358°
2026-05-06 09:42 45.37495 9.28458 1553 ft 158 kts
2026-05-06 09:43 45.38565 9.28343 1354 ft 152 kts
2026-05-06 09:43 45.39634 9.28229 1138 ft 152 kts 359°
2026-05-06 09:43 45.40674 9.28118 940 ft 147 kts
2026-05-06 09:43 45.41692 9.28013 737 ft 146 kts
2026-05-06 09:44 45.42722 9.27899 543 ft 150 kts 360°
2026-05-06 09:44 45.43755 9.27792 367 ft 147 kts 352°
2026-05-06 09:44 45.44628 9.27694 363 ft 103 kts 355°
2026-05-06 09:44 45.45112 9.27641 363 ft 37 kts 356°
2026-05-06 09:45 45.45283 9.27645 358 ft 22 kts 19°
2026-05-06 09:45 45.45392 9.27719 360 ft 9 kts 27°
2026-05-06 09:45 45.45435 9.27756 361 ft 6 kts 40°
2026-05-06 09:45 45.45467 9.27805 364 ft 8 kts 34°
2026-05-06 09:46 45.45534 9.27815 362 ft 10 kts
2026-05-06 09:46 45.45610 9.27816 362 ft 11 kts
2026-05-06 09:46 45.45695 9.27817 360 ft 13 kts
2026-05-06 09:46 45.45781 9.27819 366 ft 12 kts
2026-05-06 09:47 45.45852 9.27820 360 ft 7 kts
2026-05-06 09:47 45.45896 9.27831 360 ft 6 kts 35°
2026-05-06 09:47 45.45907 9.27878 365 ft 5 kts 88°
2026-05-06 09:47 45.45907 9.27943 364 ft 8 kts 90°
2026-05-06 09:48 45.45947 9.27967 360 ft 6 kts 359°
2026-05-06 09:48 45.45969 9.27967 360 ft 2 kts
2026-05-06 09:48 45.45973 9.27967 360 ft 0 kts 360°